Simultaneous Nadir Overpasses (SNOs) Predictions

Prediction of SNOs over PacNW region [( 10.00, 139.50) to ( 22.70, 165.60)] between AQUA and NPP Satellites:

Table of predicted SNOs over PacNW region for the next 30.0 days since TLE Epoch: 2/28/2014
Index Date (AQUA) Time (AQUA) AQUA Lat,Lon Date (NPP) Time (NPP) NPP Lat,Lon Distance(km) Time Diff (sec)
1 03/08/2014 02:41:47 19.47, 160.69 03/08/2014 02:39:11 19.19, 159.31 147.58 156
2 03/16/2014 03:28:47 12.73, 150.00 03/16/2014 03:28:02 12.36, 148.28 191.92 45
3 03/24/2014 02:39:00 14.40, 162.22 03/24/2014 02:37:48 14.09, 160.60 177.41 72
4 03/26/2014 16:20:02 10.04, 140.54 03/26/2014 16:16:33 6.56, 139.15 415.61 209




NCC Satellite Simultaneous Nadir Overpasses (SNOs) Prediction Service
